User: anonymous   Login
Location: Unspecified
(34.7023°N, 0.0000°E)
Time: 00:41:57
(UTC+00:00)
Language:

Meteor 2-17 Rocket - Orbit

View from above orbital plane
View from above orbital plane
View from above satellite
View from above satellite

Ground track
Ground track

The orbit is defined by the following mean orbital elements,

1 18821U          26088.16486728 +.00000000 +00000-0 +11331-4 0 00002
2 18821  82.5456  29.2557 0013604 323.3560  36.6669 13.85222035    05
Epoch (UTC): 29 March 2026 03:57:24
Eccentricity: 0.0013604
inclination: 82.5456°
perigee height: 935 km
apogee height: 955 km
right ascension of ascending node: 29.2557°
argument of perigee: 323.3560°
revolutions per day: 13.85222035
mean anomaly at epoch: 36.6669°

The dashed part of the orbit path shows where the satellite is in the earth's shadow,  

DLR